Overview Statistics Trail Chart Weather Telemetry Raw packets
 

This is the latest recevied weather packets stored in our database for station/object KB1RMA-4. If no packets are shown the sender has not sent any weather packets the latest 10 day(s).

<< 73 74 75 76 77 78 79 >>
Time Temp. Humidity Pressure Rain* Wind** Luminosity Snow
1788108055 27.78° C 46% 1018 hPa 0 mm - 531 W/m² -
1788107752 27.78° C 45% 1018.1 hPa 0 mm - 222 W/m² -
1788107451 27.78° C 45% 1018.2 hPa 0 mm - 170 W/m² -
1788107147 28.33° C 45% 1018.2 hPa 0 mm - 268 W/m² -
1788106843 28.33° C 45% 1018.2 hPa 0 mm - 390 W/m² -
1788106542 28.33° C 46% 1018 hPa 0 mm - 372 W/m² -
1788106238 27.78° C 47% 1018.2 hPa 0 mm - 374 W/m² -
1788105934 27.78° C 47% 1018.2 hPa 0 mm - 423 W/m² -
1788105629 27.22° C 48% 1018.3 hPa 0 mm - 358 W/m² -
1788105325 27.22° C 49% 1018.2 hPa 0 mm - 383 W/m² -
1788105020 26.67° C 48% 1018.4 hPa 0 mm - 353 W/m² -
1788104715 26.67° C 50% 1018.5 hPa 0 mm - 273 W/m² -
1788104413 27.22° C 49% 1018.3 hPa 0 mm - 383 W/m² -
1788104108 26.67° C 48% 1018.6 hPa 0 mm - 393 W/m² -
1788103807 26.67° C 52% 1018.6 hPa 0 mm - 322 W/m² -
1788103502 26.67° C 49% 1018.8 hPa 0 mm - 316 W/m² -
1788103201 26.67° C 49% 1018.9 hPa 0 mm - 315 W/m² -
1788102901 26.67° C 48% 1018.6 hPa 0 mm - 312 W/m² -
1788102595 26.67° C 50% 1018.7 hPa 0 mm - 339 W/m² -
1788102298 26.67° C 48% 1018.7 hPa 0 mm - 415 W/m² -
1788101990 26.67° C 47% 1018.8 hPa 0 mm - 399 W/m² -
1788101684 26.67° C 47% 1018.9 hPa 0 mm - 398 W/m² -
1788101380 26.67° C 48% 1018.8 hPa 0 mm - 377 W/m² -
1788101077 26.67° C 47% 1018.7 hPa 0 mm - 436 W/m² -
1788100776 27.22° C 46% 1018.9 hPa 0 mm - 433 W/m² -

* Rain latest hour (hover to see other rain measurements)
** Current wind speed in m/s (hover to see current wind gust speed)